TimeEST,TemperatureF,Dew PointF,Humidity,Sea Level PressureIn,VisibilityMPH,Wind Direction,Wind SpeedMPH,Gust SpeedMPH,PrecipitationIn,Events,Conditions,WindDirDegrees,DateUTC
12:15 AM,50.0,44.6,82,29.92,10.0,Calm,Calm,-,N/A,,Scattered Clouds,0,2012-11-07 05:15:00
12:35 AM,48.2,44.6,87,29.91,10.0,Calm,Calm,-,N/A,,Clear,0,2012-11-07 05:35:00
12:55 AM,48.2,46.4,93,29.92,10.0,Calm,Calm,-,N/A,,Mostly Cloudy,0,2012-11-07 05:55:00
1:15 AM,48.2,44.6,87,29.92,10.0,Calm,Calm,-,N/A,,Overcast,0,2012-11-07 06:15:00
1:35 AM,48.2,46.4,93,29.91,10.0,Calm,Calm,-,N/A,,Overcast,0,2012-11-07 06:35:00
1:55 AM,50.0,44.6,82,29.91,10.0,NNW,3.5,-,N/A,,Overcast,340,2012-11-07 06:55:00
2:15 AM,48.2,44.6,87,29.91,10.0,NNW,3.5,-,N/A,,Mostly Cloudy,330,2012-11-07 07:15:00
2:35 AM,48.2,44.6,87,29.91,10.0,North,3.5,-,N/A,,Overcast,350,2012-11-07 07:35:00
2:55 AM,46.4,44.6,93,29.91,10.0,NNW,3.5,-,N/A,,Scattered Clouds,340,2012-11-07 07:55:00
3:15 AM,46.4,42.8,87,29.91,10.0,NNW,3.5,-,N/A,,Clear,340,2012-11-07 08:15:00
3:35 AM,46.4,42.8,87,29.91,10.0,Calm,Calm,-,N/A,,Clear,0,2012-11-07 08:35:00
3:55 AM,44.6,42.8,93,29.91,10.0,NNW,3.5,-,N/A,,Clear,330,2012-11-07 08:55:00
4:15 AM,44.6,42.8,93,29.91,10.0,NNW,3.5,-,N/A,,Clear,330,2012-11-07 09:15:00
4:35 AM,44.6,42.8,93,29.92,10.0,NNW,3.5,-,N/A,,Clear,340,2012-11-07 09:35:00
4:55 AM,44.6,42.8,93,29.92,10.0,NNW,3.5,-,N/A,,Scattered Clouds,340,2012-11-07 09:55:00
5:15 AM,44.6,42.8,93,29.93,10.0,Calm,Calm,-,N/A,,Scattered Clouds,0,2012-11-07 10:15:00
5:35 AM,44.6,42.8,93,29.93,10.0,Calm,Calm,-,N/A,,Clear,0,2012-11-07 10:35:00
5:55 AM,42.8,42.8,100,29.93,10.0,Calm,Calm,-,N/A,,Clear,0,2012-11-07 10:55:00
6:15 AM,42.8,41.0,93,29.94,10.0,WNW,3.5,-,N/A,,Scattered Clouds,290,2012-11-07 11:15:00
8:15 AM,46.4,44.6,93,29.96,10.0,WNW,3.5,-,N/A,,Overcast,290,2012-11-07 13:15:00
8:35 AM,46.4,44.6,93,29.96,10.0,Calm,Calm,-,N/A,,Overcast,0,2012-11-07 13:35:00
8:55 AM,50.0,44.6,82,29.96,10.0,Calm,Calm,-,N/A,,Overcast,0,2012-11-07 13:55:00
9:15 AM,50.0,44.6,82,29.97,10.0,WNW,4.6,-,N/A,,Overcast,290,2012-11-07 14:15:00
9:35 AM,50.0,44.6,82,29.97,10.0,Calm,Calm,-,N/A,,Overcast,0,2012-11-07 14:35:00
9:55 AM,51.8,44.6,76,29.97,10.0,WNW,3.5,-,N/A,,Overcast,300,2012-11-07 14:55:00
10:15 AM,53.6,44.6,72,29.98,10.0,WNW,6.9,-,N/A,,Mostly Cloudy,300,2012-11-07 15:15:00
10:35 AM,55.4,44.6,67,29.97,10.0,NW,6.9,-,N/A,,Mostly Cloudy,320,2012-11-07 15:35:00
10:55 AM,55.4,42.8,63,29.97,10.0,NW,6.9,-,N/A,,Overcast,310,2012-11-07 15:55:00
11:15 AM,55.4,42.8,63,29.96,10.0,NNW,6.9,-,N/A,,Overcast,330,2012-11-07 16:15:00
11:35 AM,59.0,42.8,55,29.96,10.0,NW,6.9,-,N/A,,Mostly Cloudy,310,2012-11-07 16:35:00
11:55 AM,59.0,42.8,55,29.95,10.0,NW,5.8,-,N/A,,Mostly Cloudy,320,2012-11-07 16:55:00
12:15 PM,59.0,42.8,55,29.94,10.0,NW,10.4,-,N/A,,Scattered Clouds,320,2012-11-07 17:15:00
12:35 PM,60.8,44.6,55,29.92,10.0,West,5.8,-,N/A,,Clear,270,2012-11-07 17:35:00
12:55 PM,60.8,42.8,52,29.91,10.0,North,5.8,-,N/A,,Clear,350,2012-11-07 17:55:00
1:15 PM,62.6,44.6,52,29.91,10.0,NNW,3.5,-,N/A,,Scattered Clouds,330,2012-11-07 18:15:00
1:35 PM,59.0,42.8,55,29.90,10.0,WNW,8.1,-,N/A,,Scattered Clouds,290,2012-11-07 18:35:00
1:55 PM,62.6,44.6,52,29.89,10.0,WNW,10.4,-,N/A,,Scattered Clouds,290,2012-11-07 18:55:00
2:15 PM,60.8,44.6,55,29.89,10.0,WNW,6.9,-,N/A,,Scattered Clouds,290,2012-11-07 19:15:00
2:35 PM,60.8,44.6,55,29.89,10.0,WNW,4.6,-,N/A,,Mostly Cloudy,300,2012-11-07 19:35:00
2:55 PM,59.0,44.6,59,29.89,10.0,Calm,Calm,-,N/A,,Overcast,0,2012-11-07 19:55:00
3:15 PM,59.0,44.6,59,29.90,10.0,West,4.6,-,N/A,,Overcast,280,2012-11-07 20:15:00
3:35 PM,59.0,44.6,59,29.90,10.0,West,3.5,-,N/A,,Overcast,280,2012-11-07 20:35:00
3:55 PM,59.0,44.6,59,29.90,10.0,WNW,3.5,-,N/A,,Overcast,290,2012-11-07 20:55:00
4:15 PM,59.0,46.4,63,29.90,10.0,Calm,Calm,-,N/A,,Overcast,0,2012-11-07 21:15:00
4:35 PM,59.0,46.4,63,29.89,10.0,Calm,Calm,-,N/A,,Overcast,0,2012-11-07 21:35:00
4:55 PM,59.0,46.4,63,29.90,10.0,Calm,Calm,-,N/A,,Scattered Clouds,0,2012-11-07 21:55:00
5:15 PM,55.4,48.2,77,29.91,10.0,Calm,Calm,-,N/A,,Clear,0,2012-11-07 22:15:00
5:35 PM,51.8,48.2,88,29.91,10.0,Calm,Calm,-,N/A,,Clear,0,2012-11-07 22:35:00
5:55 PM,51.8,48.2,88,29.93,7.0,Calm,Calm,-,N/A,,Scattered Clouds,0,2012-11-07 22:55:00
6:15 PM,51.8,50.0,94,29.93,10.0,Calm,Calm,-,N/A,,Overcast,0,2012-11-07 23:15:00
6:35 PM,51.8,50.0,94,29.94,10.0,Calm,Calm,-,N/A,,Overcast,0,2012-11-07 23:35:00
6:55 PM,51.8,50.0,94,29.95,10.0,Calm,Calm,-,N/A,,Overcast,0,2012-11-07 23:55:00
7:15 PM,51.8,50.0,94,29.95,10.0,Calm,Calm,-,N/A,,Overcast,0,2012-11-08 00:15:00
7:35 PM,53.6,51.8,94,29.97,10.0,West,3.5,-,N/A,,Overcast,270,2012-11-08 00:35:00
7:55 PM,53.6,50.0,88,29.98,7.0,WNW,5.8,-,N/A,,Overcast,300,2012-11-08 00:55:00
8:15 PM,53.6,51.8,94,29.99,10.0,WNW,3.5,-,N/A,,Overcast,300,2012-11-08 01:15:00
8:35 PM,53.6,50.0,88,29.99,10.0,Calm,Calm,-,N/A,,Overcast,0,2012-11-08 01:35:00
8:55 PM,53.6,51.8,94,29.98,10.0,Calm,Calm,-,N/A,,Overcast,0,2012-11-08 01:55:00
9:15 PM,53.6,51.8,94,29.98,10.0,Calm,Calm,-,N/A,,Overcast,0,2012-11-08 02:15:00
9:35 PM,51.8,51.8,100,29.99,10.0,WNW,3.5,-,N/A,,Overcast,290,2012-11-08 02:35:00
9:55 PM,53.6,50.0,88,30.00,10.0,WNW,3.5,-,N/A,,Overcast,300,2012-11-08 02:55:00
10:15 PM,51.8,51.8,100,30.01,10.0,WNW,3.5,-,N/A,,Overcast,290,2012-11-08 03:15:00
10:35 PM,51.8,50.0,94,30.01,10.0,Calm,Calm,-,N/A,,Overcast,0,2012-11-08 03:35:00
10:55 PM,51.8,50.0,94,30.00,10.0,NW,3.5,-,N/A,,Overcast,310,2012-11-08 03:55:00
11:15 PM,51.8,50.0,94,30.01,10.0,WNW,3.5,-,N/A,,Overcast,300,2012-11-08 04:15:00
11:35 PM,51.8,50.0,94,30.01,10.0,WNW,3.5,-,N/A,,Mostly Cloudy,300,2012-11-08 04:35:00
11:55 PM,50.0,50.0,100,30.01,10.0,WNW,3.5,-,N/A,,Clear,290,2012-11-08 04:55:00